Location: ???? ?????
(37.9132°N, 22.9869°E)
Time: 04:26:59
(UTC+00:00)

ACS3 Solar Sail - Visible Passes

Search period start: 07 October 2024 00:00
Search period end: 17 October 2024 00:00
Orbit: 962 x 1036 km, 97.4° (Epoch: 06 October)

Date Brightness Start Highest point End Pass type
(mag) Time Alt. Az. Time Alt. Az. Time Alt. Az.
07 Oct 2.5 17:36:23 32° E 17:37:24 34° ENE 17:42:59 10° N visible
07 Oct 3.1 19:21:32 37° W 19:21:32 37° W 19:27:01 10° NNW visible
08 Oct 1.8 18:08:38 59° E 18:08:57 60° ENE 18:15:11 10° N visible
08 Oct 4.0 19:53:48 20° W 19:53:48 20° W 19:57:44 10° NW visible
09 Oct 3.3 16:55:43 15° E 16:57:27 17° ENE 17:01:17 10° NNE visible
09 Oct 1.9 18:40:52 76° WNW 18:40:52 76° WNW 18:47:01 10° NNW visible
10 Oct 2.6 17:27:57 29° E 17:28:47 30° ENE 17:34:09 10° N visible
10 Oct 2.9 19:13:07 41° W 19:13:07 41° W 19:18:26 10° NNW visible
11 Oct 1.9 18:00:10 54° ENE 18:00:16 54° ENE 18:06:24 10° N visible
11 Oct 3.9 19:45:19 22° W 19:45:19 22° W 19:49:17 10° NW visible
12 Oct 3.4 16:47:12 14° ENE 16:48:49 15° ENE 16:52:07 10° NNE visible
12 Oct 1.9 18:32:22 77° NNW 18:32:22 77° NNW 18:38:15 10° NNW visible
12 Oct 4.6 20:17:31 11° WNW 20:17:31 11° WNW 20:18:15 10° WNW visible
13 Oct 2.7 17:19:24 26° ENE 17:20:03 27° ENE 17:25:10 10° NNE visible
13 Oct 2.8 19:04:33 44° WNW 19:04:33 44° WNW 19:09:43 10° NNW visible
14 Oct 2.1 17:51:35 48° ENE 17:51:35 48° ENE 17:57:28 10° N visible
14 Oct 3.8 19:36:44 24° WNW 19:36:44 24° WNW 19:40:39 10° NW visible
15 Oct 3.4 16:38:35 12° ENE 16:40:03 13° ENE 16:42:43 10° NE visible
15 Oct 1.9 18:23:45 72° N 18:23:45 72° N 18:29:21 10° N visible
15 Oct 4.5 20:08:54 12° WNW 20:08:54 12° WNW 20:10:17 10° WNW visible
16 Oct 2.9 17:10:45 24° ENE 17:11:14 24° ENE 17:16:03 10° NNE visible
16 Oct 2.7 18:55:54 47° WNW 18:55:54 47° WNW 19:00:51 10° NNW visible
